Newport, RI

6:51 AM EDT on August 20, 2017 (GMT -0400)
Newport State

Weather History for KUUU - May, 2014

Change the Weather History Date:

Monday, May 12, 2014

  Actual Average Record
Temperature  
Mean Temperature 63 °F -  
Max Temperature 75 °F 63 °F 86 °F (1993)
Min Temperature 51 °F 46 °F 32 °F (1986)
Degree Days  
Heating Degree Days 2    
Growing Degree Days 13 (Base 50)    
Moisture  
Dew Point 45 °F    
Average Humidity 55    
Maximum Humidity 77    
Minimum Humidity 26    
Precipitation  
Precipitation 0.00 in - - ()
Sea Level Pressure  
Sea Level Pressure 30.07 in    
Wind  
Wind Speed 4 mph (SSW)    
Max Wind Speed 13 mph    
Max Gust Speed 21 mph    
Visibility 10 miles    
Events      
Averages and records for this station are not official NWS values.
T = Trace of Precipitation, MM = Missing Value Source: NWS Daily Summary

Daily Weather History Graph

Daily Weather History Graph

Search for Another Location

Airport or City:

Trip Planner

Search our weather history database for the weather conditions in past years. The results will help you decide how hot, cold, wet, or windy it might be!

Date:

Astronomy

May. 12, 2014 Rise Set
Actual Time 5:29 AM EDT 7:54 PM EDT
Civil Twilight 4:57 AM EDT 8:25 PM EDT
Nautical Twilight 4:18 AM EDT 9:04 PM EDT
Astronomical Twilight 3:35 AM EDT 9:48 PM EDT
Moon 5:47 PM EDT (5/12) 4:08 AM EDT (5/12)
Length of Visible Light 15h 28m
Length of Day
14h 25m
Waxing Gibbous, 95% of the Moon is Illuminated
May 12
Waxing Gibbous
May 14
Full
May 21
Last Quarter
May 28
New
Jun 5
First Quarter

Hourly Weather History & Observations

Time (EDT) Temp. Dew Point Humidity Pressure Visibility Wind Dir Wind Speed Gust Speed Precip Events Conditions
12:53 AM 53.1 °F 43.0 °F 69% 30.05 in 10.0 mi Calm Calm - N/A   Clear
1:53 AM 54.0 °F 42.1 °F 64% 30.06 in 10.0 mi Calm Calm - N/A   Clear
2:53 AM 52.0 °F 45.0 °F 77% 30.07 in 10.0 mi Calm Calm - N/A   Clear
3:53 AM 51.1 °F 39.9 °F 66% 30.07 in 10.0 mi Calm Calm - N/A   Clear
4:53 AM 54.0 °F 37.9 °F 55% 30.08 in 10.0 mi Calm Calm - N/A   Clear
5:53 AM 57.0 °F 37.9 °F 49% 30.08 in 10.0 mi North 4.6 mph - N/A   Clear
6:53 AM 55.0 °F 42.1 °F 62% 30.10 in 10.0 mi South 5.8 mph - N/A   Clear
7:53 AM 64.9 °F 39.9 °F 40% 30.10 in 10.0 mi Calm Calm - N/A   Clear
8:53 AM 70.0 °F 39.0 °F 32% 30.12 in 10.0 mi Calm Calm - N/A   Clear
10:53 AM 72.0 °F 42.1 °F 34% 30.12 in 10.0 mi South 10.4 mph - N/A   Clear
11:53 AM 73.0 °F 43.0 °F 34% 30.12 in 10.0 mi South 10.4 mph - N/A   Clear
12:53 PM 75.0 °F 37.9 °F 26% 30.10 in 10.0 mi South 12.7 mph 18.4 mph N/A   Clear
1:53 PM 73.9 °F 37.9 °F 27% 30.08 in 10.0 mi SSW 10.4 mph 20.7 mph N/A   Clear
2:53 PM 73.0 °F 48.9 °F 42% 30.06 in 10.0 mi South 12.7 mph - N/A   Clear
3:53 PM 70.0 °F 51.1 °F 51% 30.04 in 10.0 mi South 12.7 mph 18.4 mph N/A   Clear
4:53 PM 64.9 °F 51.1 °F 61% 30.04 in 10.0 mi South 12.7 mph - N/A   Clear
5:53 PM 63.0 °F 53.1 °F 70% 30.04 in 10.0 mi SSW 8.1 mph 18.4 mph N/A   Clear
7:53 PM 61.0 °F 52.0 °F 72% 30.05 in 10.0 mi SSW 8.1 mph - N/A   Clear
8:53 PM 61.0 °F 52.0 °F 72% 30.04 in 10.0 mi SSW 5.8 mph - N/A   Clear
9:53 PM 61.0 °F 52.0 °F 72% 30.05 in 10.0 mi SSW 4.6 mph - N/A   Clear
11:53 PM 61.0 °F 53.1 °F 75% 30.03 in 10.0 mi SSW 3.5 mph - N/A   Clear